• In Hungary
  • List of Countries
  • For 7 days
  • Water Temperature
  • Satellite Maps
  • Weather Map
  • News
  • Weather Widgets
  • user-avatar
    Login

    Hourly Weather Ben-Gurion

    Today, 21 November, Tuesday

    Time Temperature Precipitation Wind Pressure Humidity
    00:00 +19°C° 0.4 mm 4 mps 755 mmHg 66%
    01:00 +19°C° 0.4 mm 4 mps 755 mmHg 67%
    02:00 +19°C° 0 mm 5 mps 754 mmHg 71%
    03:00 +17°C° 0.9 mm 5 mps 754 mmHg 72%
    04:00 +17°C° 0.9 mm 6 mps 755 mmHg 73%
    05:00 +17°C° 0.9 mm 6 mps 755 mmHg 74%
    06:00 +19°C° 0.9 mm 6 mps 755 mmHg 72%
    07:00 +18°C° 0.9 mm 7 mps 755 mmHg 71%
    08:00 +18°C° 0.9 mm 7 mps 755 mmHg 70%
    09:00 +20°C° 0.8 mm 7 mps 755 mmHg 68%
    10:00 +20°C° 0.8 mm 7 mps 755 mmHg 67%
    11:00 +20°C° 0.8 mm 8 mps 755 mmHg 65%
    12:00 +20°C° 0.5 mm 8 mps 755 mmHg 64%
    13:00 +20°C° 0.5 mm 8 mps 755 mmHg 63%
    14:00 +20°C° 0.5 mm 8 mps 755 mmHg 62%
    15:00 +20°C° 0.1 mm 8 mps 755 mmHg 62%
    16:00 +18°C° 0.1 mm 8 mps 755 mmHg 61%
    17:00 +17°C° 0.1 mm 8 mps 755 mmHg 60%
    18:00 +17°C° 0 mm 8 mps 756 mmHg 61%
    19:00 +17°C° 0 mm 7 mps 756 mmHg 62%
    20:00 +16°C° 0 mm 7 mps 756 mmHg 63%
    21:00 +16°C° 0.1 mm 7 mps 756 mmHg 63%
    22:00 +16°C° 0.1 mm 7 mps 756 mmHg 63%
    23:00 +16°C° 0.1 mm 7 mps 757 mmHg 63%

    Tomorrow, 22 November, Wednesday

    Time Temperature Precipitation Wind Pressure Humidity
    00:00 +16°C° 0.1 mm 7 mps 757 mmHg 63%
    01:00 +16°C° 0.1 mm 7 mps 757 mmHg 63%
    02:00 +15°C° 0.1 mm 7 mps 757 mmHg 63%
    03:00 +15°C° 0.1 mm 6 mps 757 mmHg 64%
    04:00 +15°C° 0.1 mm 6 mps 757 mmHg 65%
    05:00 +15°C° 0.1 mm 6 mps 757 mmHg 65%
    06:00 +15°C° 0.1 mm 5 mps 757 mmHg 63%
    07:00 +16°C° 0.1 mm 5 mps 757 mmHg 61%
    08:00 +16°C° 0.1 mm 5 mps 757 mmHg 59%
    09:00 +17°C° 0.2 mm 5 mps 757 mmHg 58%
    10:00 +17°C° 0.2 mm 5 mps 758 mmHg 56%
    11:00 +19°C° 0.2 mm 6 mps 758 mmHg 54%
    12:00 +19°C° 0.2 mm 6 mps 758 mmHg 55%
    13:00 +19°C° 0.2 mm 6 mps 757 mmHg 56%
    14:00 +19°C° 0.2 mm 6 mps 757 mmHg 56%
    15:00 +17°C° 0.3 mm 5 mps 757 mmHg 58%
    16:00 +17°C° 0.3 mm 5 mps 757 mmHg 60%
    17:00 +17°C° 0.3 mm 5 mps 758 mmHg 62%
    18:00 +18°C° 0.4 mm 4 mps 758 mmHg 63%
    19:00 +17°C° 0.4 mm 4 mps 758 mmHg 63%
    20:00 +17°C° 0.4 mm 3 mps 759 mmHg 64%
    21:00 +17°C° 0.2 mm 3 mps 759 mmHg 65%
    22:00 +17°C° 0.2 mm 2 mps 759 mmHg 66%
    23:00 +16°C° 0.2 mm 2 mps 759 mmHg 67%

    Day after tomorrow, 23 November, Thursday

    Time Temperature Precipitation Wind Pressure Humidity
    00:00 +16°C° 0.1 mm 2 mps 759 mmHg 68%
    01:00 +16°C° 0.1 mm 2 mps 759 mmHg 68%
    02:00 +15°C° 0.1 mm 2 mps 759 mmHg 69%
    03:00 +15°C° 0.1 mm 2 mps 759 mmHg 70%
    04:00 +15°C° 0.1 mm 2 mps 759 mmHg 72%
    05:00 +15°C° 0.1 mm 2 mps 759 mmHg 73%
    06:00 +15°C° 0 mm 2 mps 759 mmHg 71%
    07:00 +15°C° 0 mm 2 mps 759 mmHg 68%
    08:00 +16°C° 0 mm 2 mps 760 mmHg 66%
    09:00 +17°C° 0 mm 2 mps 760 mmHg 61%
    10:00 +18°C° 0 mm 1 mps 760 mmHg 56%
    11:00 +19°C° 0 mm 1 mps 760 mmHg 52%
    12:00 +19°C° 0 mm 1 mps 760 mmHg 51%
    13:00 +20°C° 0 mm 1 mps 759 mmHg 50%
    14:00 +20°C° 0 mm 1 mps 759 mmHg 48%
    15:00 +19°C° 0 mm 1 mps 759 mmHg 50%
    16:00 +19°C° 0 mm 1 mps 759 mmHg 51%
    17:00 +19°C° 0 mm 1 mps 759 mmHg 52%
    18:00 +19°C° 0 mm 1 mps 759 mmHg 53%
    19:00 +18°C° 0 mm 1 mps 760 mmHg 54%
    20:00 +18°C° 0 mm 1 mps 760 mmHg 56%
    21:00 +18°C° 0 mm 1 mps 760 mmHg 56%
    22:00 +16°C° 0 mm 1 mps 760 mmHg 57%
    23:00 +16°C° 0 mm 1 mps 760 mmHg 58%

    24 November, Friday

    Time Temperature Precipitation Wind Pressure Humidity
    00:00 +16°C° 0 mm 1 mps 760 mmHg 59%
    01:00 +16°C° 0 mm 1 mps 760 mmHg 60%
    02:00 +15°C° 0 mm 1 mps 759 mmHg 61%
    03:00 +15°C° 0 mm 1 mps 759 mmHg 62%
    04:00 +15°C° 0 mm 2 mps 759 mmHg 62%
    05:00 +15°C° 0 mm 2 mps 759 mmHg 63%
    06:00 +15°C° 0 mm 2 mps 760 mmHg 61%
    07:00 +16°C° 0 mm 2 mps 760 mmHg 59%
    08:00 +17°C° 0 mm 2 mps 760 mmHg 56%
    09:00 +18°C° 0 mm 2 mps 760 mmHg 54%
    10:00 +19°C° 0 mm 2 mps 760 mmHg 52%
    11:00 +19°C° 0 mm 2 mps 760 mmHg 50%
    12:00 +20°C° 0 mm 2 mps 760 mmHg 49%
    13:00 +20°C° 0 mm 2 mps 760 mmHg 49%
    14:00 +20°C° 0 mm 2 mps 759 mmHg 49%
    15:00 +20°C° 0 mm 2 mps 759 mmHg 51%
    16:00 +19°C° 0 mm 2 mps 760 mmHg 53%
    17:00 +20°C° 0 mm 1 mps 760 mmHg 55%
    18:00 +19°C° 0 mm 1 mps 760 mmHg 57%
    19:00 +19°C° 0 mm 1 mps 760 mmHg 59%
    20:00 +18°C° 0 mm 1 mps 761 mmHg 61%
    21:00 +18°C° 0 mm 1 mps 761 mmHg 63%
    22:00 +18°C° 0 mm 1 mps 761 mmHg 64%
    23:00 +18°C° 0 mm 1 mps 761 mmHg 65%

    25 November, Saturday

    Time Temperature Precipitation Wind Pressure Humidity
    00:00 +16°C° 0 mm 1 mps 761 mmHg 66%
    01:00 +16°C° 0 mm 2 mps 761 mmHg 67%
    02:00 +16°C° 0 mm 2 mps 761 mmHg 67%
    03:00 +16°C° 0 mm 2 mps 761 mmHg 67%
    04:00 +16°C° 0 mm 2 mps 760 mmHg 67%
    05:00 +16°C° 0 mm 2 mps 760 mmHg 67%
    06:00 +16°C° 0 mm 3 mps 761 mmHg 65%
    07:00 +17°C° 0 mm 3 mps 761 mmHg 62%
    08:00 +18°C° 0 mm 3 mps 761 mmHg 60%
    09:00 +19°C° 0 mm 3 mps 761 mmHg 53%
    10:00 +20°C° 0 mm 3 mps 761 mmHg 46%
    11:00 +21°C° 0 mm 3 mps 760 mmHg 39%
    12:00 +22°C° 0 mm 3 mps 760 mmHg 36%
    13:00 +22°C° 0 mm 3 mps 759 mmHg 33%
    14:00 +24°C° 0 mm 3 mps 759 mmHg 30%
    15:00 +22°C° 0 mm 3 mps 759 mmHg 31%
    16:00 +22°C° 0 mm 3 mps 759 mmHg 33%
    17:00 +21°C° 0 mm 3 mps 759 mmHg 35%
    18:00 +21°C° 0 mm 3 mps 759 mmHg 35%
    19:00 +20°C° 0 mm 4 mps 759 mmHg 35%
    20:00 +20°C° 0 mm 4 mps 759 mmHg 35%
    21:00 +20°C° 0 mm 4 mps 759 mmHg 35%
    22:00 +19°C° 0 mm 4 mps 759 mmHg 35%
    23:00 +19°C° 0 mm 4 mps 759 mmHg 35%

    26 November, Sunday

    Time Temperature Precipitation Wind Pressure Humidity
    00:00 +19°C° 0 mm 4 mps 759 mmHg 35%
    01:00 +18°C° 0 mm 4 mps 759 mmHg 34%
    02:00 +18°C° 0 mm 4 mps 759 mmHg 34%
    03:00 +17°C° 0 mm 5 mps 759 mmHg 35%
    04:00 +17°C° 0 mm 5 mps 758 mmHg 37%
    05:00 +16°C° 0 mm 5 mps 758 mmHg 38%
    06:00 +17°C° 0 mm 5 mps 759 mmHg 37%
    07:00 +17°C° 0 mm 5 mps 759 mmHg 36%
    08:00 +19°C° 0 mm 5 mps 759 mmHg 35%
    09:00 +20°C° 0 mm 5 mps 759 mmHg 33%
    10:00 +21°C° 0 mm 5 mps 759 mmHg 31%
    11:00 +22°C° 0 mm 5 mps 758 mmHg 29%
    12:00 +22°C° 0 mm 4 mps 758 mmHg 29%
    13:00 +23°C° 0 mm 4 mps 758 mmHg 29%
    14:00 +24°C° 0 mm 3 mps 757 mmHg 30%
    15:00 +24°C° 0 mm 3 mps 758 mmHg 32%
    16:00 +22°C° 0 mm 3 mps 758 mmHg 35%
    17:00 +22°C° 0 mm 3 mps 758 mmHg 37%
    18:00 +21°C° 0 mm 3 mps 758 mmHg 40%
    19:00 +20°C° 0 mm 4 mps 758 mmHg 43%
    20:00 +19°C° 0 mm 4 mps 759 mmHg 45%
    21:00 +19°C° 0 mm 5 mps 759 mmHg 47%
    22:00 +19°C° 0 mm 5 mps 759 mmHg 49%
    23:00 +17°C° 0 mm 5 mps 759 mmHg 51%
    Show more